星链-11684 (STARLINK-11684)

导读 | 星芒AI

STARLINK-11684 是 SpaceX Starlink 卫星互联网项目中的一颗低轨通信卫星。该卫星属于 Starlink 任务的第 37 批次,于 2023 年发射,旨在为全球用户提供高速互联网服务。它运行在约 550 公里的轨道高度,采用先进的推进系统和激光通信技术,以提高网络效率和减少延迟。Starlink 项目致力于构建覆盖全球的卫星网络,特别是在偏远和网络基础设施薄弱地区。

基本信息
目录编号:
64240
目录名称:
STARLINK-11684
国际标识:
2025-119H
轨道中心:
EARTH
卫星名称:
星链-11684
卫星全名:
星链-11684 (STARLINK-11684)
卫星状态:
在轨 (已飞行153 天)
发射日期:
2025-06-03 UTC
国别 :
美国 (US)
星等 :
--
轨道信息
数据来源 国际轨道数据
星历时间: 2025-11-02T16:00:02+0800
19小时前
查看轨道信息
半长轴: 6734.672km
偏心率: 0.0001488
轨道倾角: 43.000°
近地点辐角 281.015°
升交点赤经 256.918°
平近点角 66.858°
近地点: 355.534km
远地点: 357.54km
周期: 91.672分钟
每日圈数: 15.708262
详细信息
固有亮度:
5
最大亮度:
2.5
卫星平台:
Starlink V1.0
覆盖范围:
全球
运营商:
太空探索技术公司
运营商所在国:
美国
制造商(研发单位):
太空探索技术公司
制造商所在国:
美国
使用方式:
暂无
卫星简介
Starlink 计划是 SpaceX 推出的全球卫星互联网项目,通过发射低轨道卫星,为全球尤其是偏远地区提供高速、低延迟的互联网服务。自 2019 年起,Starlink 已部署数千颗卫星,旨在缩小全球数字鸿沟,推动互联网普及。该项目还为军事、航空等行业提供通信支持,带来广泛经济效益。
2D轨道图
3D轨道图
轨道高度分析图
轨道倾角分析图
轨道综合分析图
查看轨道综合分析图